"Pseudo-MPEC" for C2YQR62

Created 2020 Aug 6 11:07:06 UT using Find_Orb

Click here for an explanation of pseudo-MPECs

 
 Astrometry: 
     C2YQR62  C2020 08 01.44770 00 28 35.41 +29 11 55.1    ~81BM       VNEOCPG96
     C2YQR62  C2020 08 01.45202 00 28 44.30 +29 12 27.3    ~81BM 20.2 GVNEOCPG96
     C2YQR62  C2020 08 01.46068 00 29 01.96 +29 13 30.5    ~81BM 20.4 GVNEOCPG96
     C2YQR62  C2020 08 01.47905 00 29 39.87 +29 15 45.5    ~81Bq 20.2 GVNEOCPG96
     C2YQR62  C2020 08 01.47928 00 29 40.33 +29 15 46.3    ~81Bq 20.4 GVNEOCPG96
     C2YQR62  C2020 08 01.47951 00 29 40.78 +29 15 49.0    ~81Bq 20.7 GVNEOCPG96
     C2YQR62  C2020 08 01.47975 00 29 41.32 +29 15 49.5    ~81Bq 20.8 GVNEOCPG96

Station data:
(G96) Mt. Lemmon Survey  (N32.442754 W110.788720)  US/Arizona.  Observers T.
   A. Pruyne, B. M. Africano, E. J. Christensen, G. A. Farneth, D. C. Fuls,
   A. R. Gibbs, A. D. Grauer, H. Gröller, J. A. Johnson, R. A. Kowalski, S.
   M. Larson, G. J. Leonard, D. Rankin, R. L. Seaman, F. C. Shelly. 1.5-m
   reflector + 10K CCD.

Orbital elements:  C2YQR62
   Perihelion 2020 Oct 28.464225 +/- 17.3 TT = 11:08:29 (JD 2459150.964225)
Epoch 2020 Aug  1.0 TT = JDT 2459062.5   Earth MOID: 0.0052   Ve: 0.0561
M 264.44307499 +/- 36               (J2000 ecliptic)          AutoNEOCP
n   1.08017591 +/- 0.355            Peri.  298.71996 +/- 45
a   0.94074746 +/- 0.206            Node   134.99503 +/- 9
e   0.2641772 +/- 0.12              Incl.    7.18389 +/- 7
P   0.91/333.27d           H 26.3   G  0.15   U 12.0  SR
q 0.69222337 +/- 0.209    Q 1.18927155 +/- 0.358
From 7 observations 2020 Aug. 1 (46.2 min); mean residual 0".43
Residuals in arcseconds: 
200801 G96  .04-  .06+    200801 G96  .23+  .48+    200801 G96  .28+  .59-    
200801 G96  .56+  .23+    200801 G96  .03+  .38-    
200801 G96  .77-  .45-    200801 G96  .30-  .65+    

Ephemerides (geocentric):
Date (UTC) HH   RA              Dec         delta   r     elong  mag " sig PA
---- -- -- --  -------------   -----------  ------ ------ -----  --- ---- ---
2020 08 06 11  05 30 04.732   +22 59 51.32  .01921 1.0022  51.0 23??  37d  28
2020 08 06 12  05 32 19.195   +22 46 31.17  .01929 1.0021  50.6 23??  37d  28
2020 08 06 13  05 34 32.118   +22 33 10.77  .01937 1.0019  50.1 23??  37d  28
2020 08 06 14  05 36 43.503   +22 19 50.43  .01945 1.0017  49.7 23??  38d  28
2020 08 06 15  05 38 53.354   +22 06 30.50  .01954 1.0015  49.2 23??  38d  28
2020 08 06 16  05 41 01.675   +21 53 11.28  .01963 1.0013  48.8 23??  38d  28
2020 08 06 17  05 43 08.471   +21 39 53.08  .01971 1.0012  48.3 23??  38d  28
2020 08 06 18  05 45 13.749   +21 26 36.19  .01980 1.0010  47.9 23??  38d  28
2020 08 06 19  05 47 17.514   +21 13 20.89  .01990 1.0008  47.5 23??  38d  28
2020 08 06 20  05 49 19.777   +21 00 07.45  .01999 1.0006  47.1 23??  38d  28
2020 08 06 21  05 51 20.543   +20 46 56.13  .02009 1.0005  46.6 23??  38d  28
2020 08 06 22  05 53 19.824   +20 33 47.18  .02018 1.0003  46.2 23??  38d  28
2020 08 06 23  05 55 17.629   +20 20 40.84  .02028 1.0001  45.8 23??  38d  28
2020 08 07 00  05 57 13.969   +20 07 37.33  .02038 0.9999  45.4 24??  38d  28
2020 08 07 01  05 59 08.854   +19 54 36.88  .02048 0.9997  45.0 24??  38d  28
2020 08 07 02  06 01 02.297   +19 41 39.69  .02059 0.9996  44.6 24??  38d  28
2020 08 07 03  06 02 54.309   +19 28 45.95  .02069 0.9994  44.3 24??  38d  28
2020 08 07 04  06 04 44.903   +19 15 55.86  .02080 0.9992  43.9 24??  38d  28
2020 08 07 05  06 06 34.092   +19 03 09.58  .02091 0.9990  43.5 24??  38d  28
2020 08 07 06  06 08 21.889   +18 50 27.30  .02101 0.9989  43.1 24??  38d  28
2020 08 07 07  06 10 08.309   +18 37 49.16  .02113 0.9987  42.8 24??  38d  28
2020 08 07 08  06 11 53.365   +18 25 15.32  .02124 0.9985  42.4 24??  38d  28
2020 08 07 09  06 13 37.071   +18 12 45.92  .02135 0.9983  42.1 24??  38d  28
2020 08 07 10  06 15 19.443   +18 00 21.08  .02147 0.9981  41.7 24??  38d  28
2020 08 07 11  06 17 00.493   +17 48 00.93  .02158 0.9980  41.4 24??  38d  28
2020 08 07 12  06 18 40.239   +17 35 45.58  .02170 0.9978  41.0 24??  38d  28
2020 08 07 13  06 20 18.694   +17 23 35.15  .02182 0.9976  40.7 24??  38d  28
2020 08 07 14  06 21 55.875   +17 11 29.73  .02194 0.9974  40.4 24??  38d  28
2020 08 07 15  06 23 31.795   +16 59 29.40  .02206 0.9972  40.0 24??  38d  28
2020 08 07 16  06 25 06.471   +16 47 34.27  .02218 0.9971  39.7 24??  37d  28
2020 08 07 17  06 26 39.919   +16 35 44.39  .02231 0.9969  39.4 24??  37d  28
2020 08 07 18  06 28 12.153   +16 23 59.85  .02243 0.9967  39.1 24??  37d  28
2020 08 07 19  06 29 43.189   +16 12 20.71  .02256 0.9965  38.8 25??  37d  28
2020 08 07 20  06 31 13.043   +16 00 47.02  .02269 0.9963  38.5 25??  37d  28
2020 08 07 21  06 32 41.731   +15 49 18.84  .02281 0.9962  38.2 25??  37d  28
2020 08 07 22  06 34 09.268   +15 37 56.21  .02294 0.9960  37.9 25??  37d  28
2020 08 07 23  06 35 35.669   +15 26 39.18  .02307 0.9958  37.6 25??  37d  28
2020 08 08 00  06 37 00.950   +15 15 27.77  .02321 0.9956  37.3 25??  37d  28
2020 08 08 01  06 38 25.127   +15 04 22.03  .02334 0.9954  37.1 25??  37d  28
2020 08 08 02  06 39 48.215   +14 53 21.96  .02347 0.9953  36.8 25??  37d  28
2020 08 08 03  06 41 10.228   +14 42 27.61  .02361 0.9951  36.5 25??  37d  28
2020 08 08 04  06 42 31.183   +14 31 38.97  .02374 0.9949  36.3 25??  37d  28
2020 08 08 05  06 43 51.094   +14 20 56.07  .02388 0.9947  36.0 25??  37d  28
2020 08 08 06  06 45 09.976   +14 10 18.91  .02402 0.9945  35.8 25??  37d  28
2020 08 08 07  06 46 27.844   +13 59 47.50  .02416 0.9944  35.5 25??  37d  28
2020 08 08 08  06 47 44.713   +13 49 21.83  .02430 0.9942  35.3 25??  37d  28
2020 08 08 09  06 49 00.598   +13 39 01.91  .02444 0.9940  35.0 25??  37d  28
2020 08 08 10  06 50 15.512   +13 28 47.72  .02458 0.9938  34.8 25??  37d  28